Palacios, TX

1:17 AM CDT on September 26, 2016 (GMT -0500)
Palacios Municipal

Weather History for KPSX - October, 2013

Change the Weather History Date:

Saturday, October 5, 2013

  Actual Average Record
Temperature  
Mean Temperature 81 °F -  
Max Temperature 89 °F 85 °F 92 °F (1982)
Min Temperature 70 °F 66 °F 50 °F (1961)
Cooling Degree Days 16    
Growing Degree Days 31 (Base 50)    
Moisture  
Dew Point 72 °F    
Average Humidity 76    
Maximum Humidity 94    
Minimum Humidity 53    
Precipitation  
Precipitation 0.00 in - - ()
Sea Level Pressure  
Sea Level Pressure 29.90 in    
Wind  
Wind Speed 5 mph (South)    
Max Wind Speed 22 mph    
Max Gust Speed 29 mph    
Visibility 7 miles    
Events      
Averages and records for this station are not official NWS values.
T = Trace of Precipitation, MM = Missing Value Source: NWS Daily Summary

Daily Weather History Graph

Daily Weather History Graph

Search for Another Location

Airport or City:

Trip Planner

Search our weather history database for the weather conditions in past years. The results will help you decide how hot, cold, wet, or windy it might be!

Date:

Astronomy

Oct. 05, 2013 Rise Set
Actual Time 7:20 AM CDT 7:05 PM CDT
Civil Twilight 6:56 AM CDT 7:29 PM CDT
Nautical Twilight 6:29 AM CDT 7:56 PM CDT
Astronomical Twilight 6:01 AM CDT 8:24 PM CDT
Moon 7:54 AM CDT (10/5) 7:33 PM CDT (10/5)
Length of Visible Light 12h 32m
Length of Day
11h 45m
New Moon, 1% of the Moon is Illuminated
Oct 5
New Moon
Oct 11
First Quarter
Oct 18
Full
Oct 26
Last Quarter
Nov 3
New

Hourly Weather History & Observations

Time (CDT) Temp. Heat Index Dew Point Humidity Pressure Visibility Wind Dir Wind Speed Gust Speed Precip Events Conditions
12:53 AM 78.1 °F - 75.0 °F 90% 29.90 in 8.0 mi SSE 5.8 mph - N/A   Clear
1:53 AM 79.0 °F - 75.0 °F 88% 29.89 in 8.0 mi SSE 6.9 mph - N/A   Clear
2:53 AM 79.0 °F - 75.0 °F 88% 29.88 in 7.0 mi South 4.6 mph - N/A   Clear
3:53 AM 75.9 °F - 73.0 °F 91% 29.88 in 8.0 mi Calm Calm - N/A   Partly Cloudy
4:53 AM 75.0 °F - 73.0 °F 94% 29.89 in 7.0 mi NNE 3.5 mph - N/A   Scattered Clouds
5:53 AM 73.9 °F - 72.0 °F 93% 29.89 in 7.0 mi Calm Calm - N/A   Clear
6:53 AM 73.9 °F - 72.0 °F 93% 29.90 in 7.0 mi Calm Calm - N/A   Scattered Clouds
7:53 AM 75.9 °F - 73.9 °F 94% 29.90 in 6.0 mi ESE 3.5 mph - N/A   Clear
8:53 AM 81.0 °F 87.9 °F 77.0 °F 88% 29.91 in 7.0 mi ESE 3.5 mph - N/A   Clear
9:53 AM 82.9 °F 90.8 °F 75.9 °F 79% 29.92 in 7.0 mi SSE 8.1 mph - N/A   Clear
10:53 AM 84.9 °F 92.1 °F 73.9 °F 69% 29.93 in 8.0 mi Variable 5.8 mph - N/A   Partly Cloudy
11:53 AM 84.9 °F 92.1 °F 73.9 °F 69% 29.94 in 8.0 mi SSW 6.9 mph - N/A   Scattered Clouds
12:53 PM 87.1 °F 93.6 °F 72.0 °F 61% 29.92 in 5.0 mi SW 6.9 mph - N/A   Haze
1:53 PM 89.1 °F 95.0 °F 71.1 °F 55% 29.90 in 8.0 mi Variable 3.5 mph - N/A   Clear
2:53 PM 89.1 °F 94.1 °F 70.0 °F 53% 29.88 in 6.0 mi SSW 8.1 mph - N/A   Haze
4:53 PM 89.1 °F 94.1 °F 70.0 °F 53% 29.85 in 4.0 mi SSW 6.9 mph - N/A   Haze
5:53 PM 88.0 °F 92.9 °F 70.0 °F 55% 29.84 in 4.0 mi South 8.1 mph - N/A   Haze
6:53 PM 84.9 °F 91.4 °F 73.0 °F 67% 29.86 in 5.0 mi SSW 8.1 mph - N/A   Haze
7:53 PM 84.0 °F 91.2 °F 73.9 °F 72% 29.88 in 7.0 mi SSW 5.8 mph - N/A   Clear
8:53 PM 82.0 °F 87.9 °F 73.9 °F 76% 29.90 in 9.0 mi Calm Calm - N/A   Clear
9:53 PM 80.1 °F 84.5 °F 73.9 °F 81% 29.91 in 9.0 mi Calm Calm - N/A   Clear
10:53 PM 75.9 °F - 66.0 °F 71% 29.94 in 10.0 mi North 21.9 mph 28.8 mph N/A   Mostly Cloudy
11:53 PM 70.0 °F - 60.1 °F 71% 29.95 in 10.0 mi North 18.4 mph 26.5 mph N/A   Clear